CW0454 Weather Reports


Display with metric or nautical units.
time (UTC)temp
F
wind
direction
speed
MPH
gust
MPH
rain 1hr
in
rain 24hr
in
rain mn
in
humidity
%
barometer
mb
20260506204400 71 205 4.0 13.0 0.00 0.12 0.12 78 1006.8
20260506203421 71 238 2.0 8.0 0.00 0.12 0.12 78 1006.7
20260506202400 71 170 3.0 11.0 0.00 0.12 0.12 78 1006.6
20260506201400 72 200 3.0 11.0 0.00 0.12 0.12 77 1006.5
20260506200400 72 132 7.0 11.0 0.00 0.12 0.12 77 1006.6
20260506195401 72 125 3.0 13.0 0.00 0.12 0.12 77 1006.6
20260506194400 72 162 2.0 10.0 0.00 0.12 0.12 77 1006.7
20260506193401 72 197 4.0 8.0 0.00 0.12 0.12 78 1006.6
20260506192400 72 240 1.0 8.0 0.00 0.12 0.12 79 1006.7
20260506191401 71 171 2.0 9.0 0.00 0.12 0.12 80 1006.9
20260506190400 70 216 3.0 8.0 0.00 0.12 0.12 81 1007.0
20260506185401 69 155 4.0 13.0 0.00 0.12 0.12 81 1007.1
20260506184443 69 192 3.0 12.0 0.00 0.12 0.12 81 1007.3
20260506183400 69 174 5.0 14.0 0.00 0.12 0.12 82 1007.4
20260506182401 69 181 3.0 12.0 0.00 0.12 0.12 82 1007.5
20260506181400 68 227 2.0 9.0 0.00 0.12 0.12 84 1007.6
20260506180401 68 58 4.0 14.0 0.00 0.12 0.12 84 1007.7
20260506175422 67 144 6.0 15.0 0.00 0.12 0.12 85 1007.6
20260506174400 67 121 3.0 11.0 0.00 0.12 0.12 86 1007.7
20260506173401 66 150 4.0 15.0 0.00 0.12 0.12 88 1007.8
20260506172400 66 160 3.0 15.0 0.00 0.12 0.12 88 1007.8
20260506171401 66 140 6.0 14.0 0.00 0.12 0.12 89 1007.8
20260506170401 65 116 3.0 13.0 0.00 0.12 0.12 91 1007.9
20260506165401 64 143 6.0 14.0 0.00 0.12 0.12 91 1008.2
20260506164400 64 128 4.0 13.0 0.00 0.12 0.12 92 1008.3
20260506163443 64 123 5.0 14.0 0.00 0.12 0.12 92 1008.2
20260506162401 64 124 3.0 11.0 0.00 0.12 0.12 93 1008.0
20260506161401 63 128 4.0 10.0 0.00 0.12 0.12 93 1008.2
20260506160401 62 127 5.0 14.0 0.00 0.12 0.12 93 1008.5
20260506155401 63 170 2.0 10.0 0.02 0.12 0.12 93 1008.6
20260506154401 62 133 6.0 16.0 0.02 0.12 0.12 92 1008.4
20260506153401 62 103 5.0 13.0 0.01 0.11 0.11 92 1008.3
20260506152401 62 129 6.0 14.0 0.01 0.11 0.11 91 1008.8
20260506151401 62 128 3.0 10.0 0.01 0.11 0.11 91 1009.0
20260506150400 62 120 3.0 11.0 0.01 0.11 0.11 90 1009.3
20260506145422 62 117 2.0 10.0 0.07 0.08 0.08 89 1009.3
20260506144402 63 135 3.0 8.0 0.04 0.05 0.05 88 1009.3
20260506143443 63 142 2.0 10.0 0.03 0.04 0.04 88 1009.2
20260506142401 63 136 3.0 9.0 0.02 0.03 0.03 86 1009.2
20260506141401 64 125 2.0 8.0 0.01 0.02 0.02 85 1009.3
20260506140401 64 80 1.0 10.0 0.00 0.01 0.01 83 1009.4
20260506135401 65 154 2.0 10.0 0.00 0.00 0.00 82 1009.7
20260506134401 65 105 3.0 9.0 0.00 0.00 0.00 79 1009.8
20260506133402 66 142 2.0 13.0 0.00 0.00 0.00 80 1009.6
20260506132401 66 123 4.0 10.0 0.00 0.00 0.00 78 1009.3
20260506131402 66 147 3.0 12.0 0.00 0.00 0.00 78 1009.2
20260506130422 66 128 4.0 11.0 0.00 0.00 0.00 78 1009.0
20260506125422 66 122 3.0 8.0 0.00 0.00 0.00 77 1008.9
20260506124402 66 167 1.0 12.0 0.00 0.00 0.00 77 1009.1
20260506123401 66 130 4.0 10.0 0.00 0.00 0.00 78 1009.2
20260506122402 66 129 3.0 12.0 0.00 0.00 0.00 78 1009.4
20260506121401 66 133 6.0 12.0 0.00 0.00 0.00 77 1009.4
20260506120402 66 140 4.0 12.0 0.00 0.00 0.00 77 1009.4
20260506115422 66 123 5.0 12.0 0.00 0.00 0.00 76 1009.3
20260506114402 66 173 3.0 10.0 0.00 0.00 0.00 77 1009.2
20260506113422 66 144 6.0 20.0 0.00 0.00 0.00 77 1009.0
20260506112423 66 143 4.0 11.0 0.00 0.00 0.00 77 1008.9
20260506111402 65 118 3.0 11.0 0.00 0.00 0.00 78 1008.8
20260506110444 65 135 5.0 10.0 0.00 0.00 0.00 78 1008.7
20260506105403 65 135 4.0 16.0 0.00 0.00 0.00 77 1008.6
20260506104402 65 124 9.0 16.0 0.00 0.00 0.00 77 1008.5
20260506103401 65 136 4.0 14.0 0.00 0.00 0.00 77 1008.5
20260506102402 65 126 6.0 13.0 0.00 0.00 0.00 78 1008.6
20260506101402 65 111 3.0 12.0 0.00 0.00 0.00 77 1008.5
20260506100402 65 149 4.0 12.0 0.00 0.00 0.00 77 1008.5
20260506095402 65 122 2.0 10.0 0.00 0.00 0.00 77 1008.6
20260506094402 65 134 5.0 13.0 0.00 0.00 0.00 77 1008.5
20260506093402 66 139 5.0 13.0 0.00 0.00 0.00 76 1008.6
20260506092401 66 159 2.0 12.0 0.00 0.00 0.00 76 1008.6
20260506091402 66 122 3.0 15.0 0.00 0.00 0.00 75 1008.7
20260506090403 66 128 5.0 11.0 0.00 0.00 0.00 75 1008.8
20260506085402 67 119 6.0 12.0 0.00 0.00 0.00 74 1008.7
20260506084402 67 137 6.0 12.0 0.00 0.00 0.00 74 1008.7
20260506083402 67 118 4.0 16.0 0.00 0.00 0.00 73 1008.6
20260506082403 67 128 6.0 15.0 0.00 0.00 0.00 73 1008.6
20260506081402 67 124 6.0 16.0 0.00 0.00 0.00 73 1008.6
20260506080402 68 157 2.0 12.0 0.00 0.00 0.00 72 1008.6
20260506073402 69 137 5.0 12.0 0.00 0.00 0.00 70 1008.9
20260506072402 69 107 5.0 10.0 0.00 0.00 0.00 70 1009.0
20260506071402 70 125 3.0 12.0 0.00 0.00 0.00 68 1008.9
20260506070403 70 135 5.0 16.0 0.00 0.00 0.00 68 1008.9
20260506062402 70 127 8.0 16.0 0.00 0.00 0.00 66 1008.9
20260506060358 71 119 5.0 13.0 0.00 0.00 0.00 64 1009.0
20260506051359 72 126 4.0 19.0 0.00 0.00 0.00 60 1009.4
20260506050359 72 148 4.0 13.0 0.00 0.00 0.00 59 1009.5
20260506044419 72 96 3.0 13.0 0.00 0.00 0.00 59 1009.5
20260506043359 72 124 5.0 10.0 0.00 0.00 0.00 58 1009.4
20260506042359 72 143 4.0 16.0 0.00 0.00 0.00 57 1009.4
20260506041400 72 138 4.0 22.0 0.00 0.00 0.00 57 1009.4
20260506040359 72 142 5.0 16.0 0.00 0.00 0.00 57 1009.5
20260506035400 72 153 4.0 11.0 0.00 0.00 0.00 58 1009.4
20260506034359 72 122 5.0 14.0 0.00 0.00 0.00 57 1009.5
20260506033401 72 93 3.0 9.0 0.00 0.00 0.00 56 1009.4
20260506032359 72 120 5.0 14.0 0.00 0.00 0.00 56 1009.3
20260506031359 72 132 4.0 11.0 0.00 0.00 0.00 56 1009.3
20260506030359 71 126 5.0 15.0 0.00 0.00 0.00 57 1009.4
20260506025359 70 133 1.0 10.0 0.00 0.00 0.00 58 1009.3
20260506024359 69 121 2.0 8.0 0.00 0.00 0.00 58 1009.5
20260506023359 69 103 3.0 9.0 0.00 0.00 0.00 59 1009.6
20260506022400 68 94 2.0 6.0 0.00 0.00 0.00 60 1009.8
20260506021359 68 127 1.0 6.0 0.00 0.00 0.00 60 1009.6
20260506020359 69 101 2.0 7.0 0.00 0.00 0.00 58 1009.8
20260506015400 69 91 1.0 6.0 0.00 0.00 0.00 56 1009.4
20260506014420 70 87 2.0 7.0 0.00 0.00 0.00 55 1009.3
20260506013359 70 108 2.0 4.0 0.00 0.00 0.00 56 1009.2
20260506012400 70 100 1.0 4.0 0.00 0.00 0.00 55 1009.2
20260506011359 71 109 2.0 6.0 0.00 0.00 0.00 54 1009.0
20260506010400 72 95 2.0 7.0 0.00 0.00 0.00 52 1008.9
20260506005421 72 70 1.0 10.0 0.00 0.00 0.00 50 1008.7
20260506004359 72 100 1.0 4.0 0.00 0.00 0.00 51 1008.7
20260506003359 74 101 1.0 3.0 0.00 0.00 0.00 50 1008.5
20260506002400 75 67 1.0 4.0 0.00 0.00 0.00 47 1008.4
20260506001359 77 73 1.0 6.0 0.00 0.00 0.00 44 1008.4
20260506000423 78 94 2.0 7.0 0.00 0.00 0.00 38 1008.3
20260505235359 79 151 2.0 11.0 0.00 0.00 0.00 37 1008.2
20260505234401 79 287 1.0 11.0 0.00 0.00 0.00 36 1008.1
20260505233400 80 137 7.0 12.0 0.00 0.00 0.00 36 1008.1
20260505232359 80 146 4.0 10.0 0.00 0.00 0.00 35 1008.0
20260505231400 80 163 3.0 10.0 0.00 0.00 0.00 36 1008.1
20260505230400 80 120 4.0 9.0 0.00 0.00 0.00 35 1008.1
20260505225400 81 179 3.0 11.0 0.00 0.00 0.00 35 1008.1
20260505224400 81 169 4.0 10.0 0.00 0.00 0.00 34 1008.1
20260505223359 81 120 2.0 13.0 0.00 0.00 0.00 34 1008.1
20260505222400 81 135 5.0 13.0 0.00 0.00 0.00 35 1008.0
20260505221400 82 118 5.0 16.0 0.00 0.00 0.00 33 1008.0
20260505220400 83 226 4.0 14.0 0.00 0.00 0.00 33 1008.2
20260505215421 83 135 4.0 14.0 0.00 0.00 0.00 34 1008.1
20260505214421 84 161 5.0 12.0 0.00 0.00 0.00 33 1008.1
20260505213400 84 145 6.0 18.0 0.00 0.00 0.00 32 1008.0
20260505212421 84 138 8.0 18.0 0.00 0.00 0.00 32 1007.9
20260505211401 84 139 6.0 17.0 0.00 0.00 0.00 32 1007.8
20260505210400 85 185 6.0 14.0 0.00 0.00 0.00 33 1007.7
20260505205400 85 169 6.0 19.0 0.00 0.00 0.00 33 1007.8